Overview Statistics Trail Chart Weather Telemetry Raw packets
 

This is the latest recevied weather packets stored in our database for station/object 4S6DRJ-13. If no packets are shown the sender has not sent any weather packets the latest 10 day(s).

<< 406 407 408 409 410 411 412 >>
Time Temp. Humidity Pressure Rain* Wind** Luminosity Snow
1787846394 27.78° C 87% 1011 hPa 0 mm 0.45 m/s, 251° 0 W/m² -
1787846333 27.78° C 87% 1011 hPa 0 mm 0.45 m/s, 229° 0 W/m² -
1787846272 27.78° C 87% 1011.1 hPa 0 mm 0 m/s 0 W/m² -
1787846211 27.78° C 87% 1011.1 hPa 0 mm 0.45 m/s, 240° 0 W/m² -
1787846150 27.78° C 87% 1011 hPa 0 mm 0.45 m/s, 207° 0 W/m² -
1787846089 27.78° C 87% 1011.1 hPa 0 mm 0.45 m/s, 234° 0 W/m² -
1787846028 27.78° C 87% 1011.1 hPa 0 mm 0.45 m/s, 221° 0 W/m² -
1787845967 27.78° C 87% 1010.9 hPa 0 mm 0 m/s 0 W/m² -
1787845907 27.78° C 87% 1011.1 hPa 0 mm 0.45 m/s, 233° 0 W/m² -
1787845845 27.78° C 87% 1011.2 hPa 0 mm 0 m/s 0 W/m² -
1787845784 27.78° C 87% 1010.9 hPa 0 mm 0.45 m/s, 233° 0 W/m² -
1787845723 27.78° C 87% 1011 hPa 0 mm 0.89 m/s, 151° 0 W/m² -
1787845663 27.78° C 87% 1011 hPa 0 mm 0 m/s 0 W/m² -
1787845601 27.78° C 87% 1011.3 hPa 0 mm 0.89 m/s, 249° 0 W/m² -
1787845540 27.78° C 87% 1011 hPa 0 mm 0.45 m/s, 216° 0 W/m² -
1787845479 27.78° C 87% 1011 hPa 0 mm 0.45 m/s, 235° 0 W/m² -
1787845418 27.78° C 87% 1011.1 hPa 0 mm 0.89 m/s, 205° 0 W/m² -
1787845357 27.78° C 87% 1010.9 hPa 0 mm 0.89 m/s, 178° 0 W/m² -
1787845296 27.78° C 87% 1011.2 hPa 0 mm 0 m/s 0 W/m² -
1787845235 27.78° C 87% 1011 hPa 0 mm 0.89 m/s, 279° 0 W/m² -
1787845174 27.78° C 87% 1010.8 hPa 0 mm 0.45 m/s, 167° 0 W/m² -
1787845113 27.78° C 87% 1010.9 hPa 0 mm 0.89 m/s, 234° 0 W/m² -
1787845052 27.78° C 87% 1011 hPa 0 mm 0.45 m/s, 213° 0 W/m² -
1787844991 27.78° C 87% 1010.8 hPa 0 mm 0.45 m/s, 278° 0 W/m² -
1787844930 27.78° C 87% 1010.7 hPa 0 mm 0 m/s 0 W/m² -

* Rain latest hour (hover to see other rain measurements)
** Current wind speed in m/s (hover to see current wind gust speed)